Regional Weather Roundup
Issued by NWS New Orleans/Baton Rouge, LA

Home | Current Version | Previous Version | Graphics & Text | Print | Product List | Glossary On
Versions: 1 2 3 4 5 6 7 8 9 10 11 12 13 14 15 16 17 18 19 20 21 22 23 24 25 26 27 28 29 30 31 32 33 34 35 36 37 38 39 40 41 42 43 44 45 46 47 48 49 50
742
ASUS44 KLIX 261901
RWRLIX
NEW ORLEANS REGIONAL WEATHER ROUNDUP
NATIONAL WEATHER SERVICE NEW ORLEANS LA
100 PM CST MON JAN 26 2015

NOTE: "FAIR" INDICATES FEW OR NO CLOUDS BELOW 12,000 FEET WITH NO
      SIGNIFICANT WEATHER AND/OR OBSTRUCTIONS TO VISIBILITY.
      SKY/WX - SKY CONDITION AND SIGNIFICANT WEATHER.
      TMP - AIR TEMPERATURE.     DP    - DEWPOINT TEMPERATURE.
      RH  - RELATIVE HUMIDITY.   PRES  - PRESSURE.
      HI  - HEAT INDEX.          WCI   - WIND CHILL INDEX.

*  THESE STATIONS ARE NOT NWS OR FAA STATIONS AND ARE NOT UNDER
   NWS QUALITY CONTROL.

LAZ038-040-048-061>063-065>067-069-262000-
SOUTHEAST LOUISIANA

CITY           SKY/WX    TMP DP  RH WIND       PRES   REMARKS
N.O. AUDUBON   NOT AVBL
N.O. INTL ARPT MOSUNNY   58  36  43 N14       30.08F
N.O. LAKEFRONT SUNNY     57  41  55 NW8       30.09F
N.O. DOWNTOWN*   N/A     57  34  41 N10G18    30.08F
SLIDELL        SUNNY     62  35  36 N13G21    30.05F
BATON ROUGE    SUNNY     60  33  36 NW12      30.10F
BOOTHVILLE     SUNNY     54  39  57 NW14      30.08F
BELLE CHASSE   MOSUNNY   59  34  39 N8G18     30.07F
BOGALUSA*        N/A     59  34  39 N14G20    30.09F
GALLIANO*      NOT AVBL
NEW ROADS*     NOT AVBL
GONZALES*      NOT AVBL
HAMMOND*       NOT AVBL
HOUMA*         SUNNY     61  37  41 NW10      30.09F
PORT FOURCHON* CLEAR     55  39  54 W10       30.13F

$$

MSZ070-080>082-262000-
SOUTHERN MISSISSIPPI

CITY           SKY/WX    TMP DP  RH WIND       PRES   REMARKS
MCCOMB         SUNNY     57  34  41 NW16G23   30.09F
GULFPORT       SUNNY     60  36  40 NW15      30.03F
BILOXI         SUNNY     59  36  42 N16G23    30.03F
PASCAGOULA     SUNNY     59  36  42 N20G25    30.01F
STENNIS ARPT*  SUNNY     59  30  33 N12G21    30.05F

$$

COASTAL OBSERVATIONS
LAKE AND NEARSHORE STATIONS

STATION/POSITION TIME  TEMP    WIND        PRES    WAVE
                       AIR SEA DIR/SP/G            HT/PER
                 (UTC) (F)     (DEG/KT/KT) (MB)    (FT/S)
PASCAGOULA       1818   57     340/ 14/ 20 1016.6
WAVELAND YACHT   1818   54     330/ 12/ 18 1017.1
GRAND ISLE       1818   53 56  340/ 12/ 16 1019.9
SOUTHWEST PASS   1818   60 46  320/ 12/ 14 1019.6
NEW CANAL        1818   54 52  290/  3/  9 1019.7
SHELL BEACH      1818   52 53  310/ 17/ 19 1018.8

OFFSHORE STATIONS

STATION/POSITION TIME  TEMP    WIND        PRES    WAVE
                       AIR SEA DIR/SP/G            HT/PER
                 (UTC) (F)     (DEG/KT/KT) (MB)    (FT/S)
64 S DAUPHIN ISL 1800   53 71  320/ 19/ 23 1017.7    6/ 8

$$




USA.gov is the U.S. government's official web portal to all federal, state and local government web resources and services.